星链-4762 (STARLINK-4762 )

导读

STARLINK-4762是美国SpaceX公司星链星座的一员,于北京时间2022年9月19日发射升空,属于星链计划第二批组网卫星,部署于近地轨道。星链星座旨在构建全球覆盖的高速卫星互联网,为偏远地区、海洋和航空场景提供宽带接入服务。作为SpaceX大规模星座组网的重要组成部分,该卫星进一步拓展了星链的全球覆盖范围,提升了星座整体服务的稳定性与容量,助力SpaceX实现全球卫星互联网的部署目标。

Basic Information
目录编号:
53866
目录名称:
STARLINK-4762
国际标识:
2022-114BA
轨道中心:
EARTH
卫星名称:
星链-4762
卫星全名:
星链-4762 (STARLINK-4762 )
卫星状态:
在轨 (已飞行1367 天)
发射日期:
2022-09-19 UTC
国别 :
美国 (US)
星等 :
--
Orbit Information
数据来源 国际轨道数据 AOE轨道数据
星历时间 2026-06-16T16:23:08+0800
1天前
查看轨道信息
2026-06-15T02:00:00+0800
2天前
查看轨道信息
半长轴 6917.91km 6917.903km
偏心率 0.0001165 0.0001569
轨道倾角 53.160° 53.154°
近地点辐角 76.547° 92.345°
升交点赤经 181.336° 188.525°
平近点角 283.565° 215.418°
近地点 538.967km 538.68km
远地点 540.579km 540.852km
周期 95.438分钟 95.438分钟
每日圈数 15.088304 15.088327
Detailed Information
固有亮度:
5
最大亮度:
2.5
卫星平台:
Starlink v1.5
覆盖范围:
全球
运营商:
太空探索技术公司
运营商所在国:
美国
制造商(研发单位):
太空探索技术公司
制造商所在国:
美国
使用方式:
暂无
Satellite Introduction
星链(Starlink)计划是由太空探索技术公司(SpaceX)提出的一个巨型低轨卫星互联网星座项目,计划在2019年至2024年间在太空搭建由约1.2万颗卫星组成的“星链”网络,其中1584颗将部署在地球上空550千米处的近地轨道,并从2020年开始工作。该卫星仍在工作。
2D Orbit Map
3D Orbit Map
Orbit Altitude Analysis Chart
Orbit Inclination Analysis Chart
Orbit Comprehensive Analysis Chart
View Comprehensive Chart